Date String (YYYY-MM-DD hh:mm:ss) UTC,Instrument flags,Ambient pressure (hPa),Sample flow (lpm),Bypass flow (lpm),Sample temperature (°C),Ambient temperature (°C),ASC tube jacket temperature (°C),LED temperature (°C),Box temperature (°C),Sample RH (%),Span deviation,Mass concentration (μg/m³),Mass concentration (μg/m³),Mass concentration (μg/m³)
DateTimeUTC,F1_M11,P_M11,Q1_M11,Q2_M11,T1_M11,T2_M11,T3_M11,T4_M11,T5_M11,U1_M11,ZSPAN_M11,X0_M11,X2_M11,X1_M11
2022-09-14 23:00:00,,0823.0,5.01,0.00,29.7,28.1,00.0,38.5,31.5,28.0,0000.0,0006.19,0003.65,0003.27
2022-09-14 23:01:00,,0822.9,4.99,0.00,29.7,28.2,00.0,38.5,31.6,27.6,0000.0,0005.85,0003.55,0003.21
2022-09-14 23:02:00,,0822.9,5.01,0.00,29.7,28.3,00.0,38.5,31.6,27.6,0000.0,0005.81,0003.52,0003.19
2022-09-14 23:03:00,,0822.9,4.99,0.00,29.7,28.3,00.0,38.5,31.6,27.9,0000.0,0005.70,0003.49,0003.16
2022-09-14 23:04:00,,0822.8,5.01,0.00,29.7,28.3,00.0,38.5,31.6,27.6,0000.0,0005.51,0003.42,0003.12
2022-09-14 23:05:00,,0822.8,5.00,0.00,29.7,28.4,00.0,38.5,31.6,27.5,0000.0,0005.39,0003.39,0003.07
2022-09-14 23:06:00,,0822.8,5.00,0.00,29.7,28.4,00.0,38.5,31.6,28.0,0000.0,0005.27,0003.35,0003.02
2022-09-14 23:07:00,,0822.8,4.99,0.00,29.7,28.4,00.0,38.5,31.6,28.5,0000.0,0005.09,0003.34,0002.99
2022-09-14 23:08:00,,0822.8,5.01,0.00,29.8,28.5,00.0,38.5,31.6,27.9,0000.0,0004.84,0003.30,0002.94
2022-09-14 23:09:00,,0822.7,4.99,0.00,29.8,28.5,00.0,38.5,31.6,27.4,0000.0,0004.66,0003.26,0002.91
2022-09-14 23:10:00,,0822.8,5.01,0.00,29.8,28.6,00.0,38.5,31.7,26.6,0000.0,0004.52,0003.24,0002.89
2022-09-14 23:11:00,,0822.8,4.99,0.00,29.8,28.6,00.0,38.5,31.7,27.2,0000.0,0004.42,0003.22,0002.87
2022-09-14 23:12:00,,0822.8,5.00,0.00,29.8,28.6,00.0,38.6,31.7,26.7,0000.0,0004.43,0003.21,0002.85
2022-09-14 23:13:00,,0822.8,4.99,0.00,29.8,28.6,00.0,38.6,31.7,27.1,0000.0,0004.70,0003.21,0002.82
2022-09-14 23:14:00,,0822.8,5.01,0.00,29.8,28.6,00.0,38.6,31.7,27.8,0000.0,0005.15,0003.19,0002.80
2022-09-14 23:15:00,,0822.8,4.99,0.00,29.8,28.6,00.0,38.6,31.7,28.2,0000.0,0005.67,0003.18,0002.80
2022-09-14 23:16:00,,0822.8,5.00,0.00,29.8,27.7,00.0,38.6,31.7,28.2,0000.0,0005.73,0003.20,0002.82
2022-09-14 23:17:00,,0822.8,5.00,0.00,29.8,26.7,00.0,38.5,31.6,28.0,0000.0,0005.71,0003.20,0002.85
2022-09-14 23:18:00,,0822.8,5.00,0.00,29.8,26.5,00.0,38.5,31.5,27.6,0000.0,0005.36,0003.17,0002.84
2022-09-14 23:19:00,,0822.7,5.00,0.00,29.7,26.7,00.0,38.5,31.3,27.9,0000.0,0005.30,0003.17,0002.86
2022-09-14 23:20:00,,0822.8,5.01,0.00,29.6,27.0,00.0,38.4,31.3,28.4,0000.0,0005.39,0003.19,0002.87
2022-09-14 23:21:00,,0822.8,5.01,0.00,29.6,27.3,00.0,38.4,31.3,28.8,0000.0,0005.50,0003.20,0002.86
2022-09-14 23:22:00,,0822.7,4.98,0.00,29.6,27.5,00.0,38.4,31.3,29.7,0000.0,0005.58,0003.22,0002.88
2022-09-14 23:23:00,,0822.7,5.00,0.00,29.6,27.7,00.0,38.4,31.4,29.5,0000.0,0005.69,0003.27,0002.92
2022-09-14 23:24:00,,0822.7,5.01,0.00,29.6,27.8,00.0,38.4,31.4,28.7,0000.0,0005.37,0003.27,0002.96
2022-09-14 23:25:00,,0822.7,5.00,0.00,29.6,27.9,00.0,38.4,31.4,28.2,0000.0,0004.88,0003.28,0002.98
2022-09-14 23:26:00,,0822.7,5.00,0.00,29.6,28.0,00.0,38.4,31.4,28.2,0000.0,0004.34,0003.29,0002.99
2022-09-14 23:27:00,,0822.7,4.99,0.00,29.6,28.1,00.0,38.4,31.4,28.2,0000.0,0004.31,0003.28,0002.97
2022-09-14 23:28:00,,0822.7,5.01,0.00,29.6,28.1,00.0,38.4,31.4,27.8,0000.0,0004.29,0003.28,0002.94
2022-09-14 23:29:00,,0822.7,4.99,0.00,29.6,28.2,00.0,38.4,31.4,27.9,0000.0,0004.44,0003.30,0002.92
2022-09-14 23:30:00,,0822.7,5.01,0.00,29.6,28.2,00.0,38.4,31.4,28.3,0000.0,0004.42,0003.28,0002.88
2022-09-14 23:31:00,,0822.7,4.99,0.00,29.6,28.3,00.0,38.4,31.4,29.6,0000.0,0004.61,0003.30,0002.90
2022-09-14 23:32:00,,0822.8,4.99,0.00,29.6,28.3,00.0,38.4,31.4,29.8,0000.0,0004.63,0003.33,0002.94
2022-09-14 23:33:00,,0822.8,5.01,0.00,29.6,28.4,00.0,38.4,31.5,29.9,0000.0,0004.62,0003.34,0002.97
2022-09-14 23:34:00,,0822.8,5.00,0.00,29.7,28.4,00.0,38.4,31.5,29.8,0000.0,0004.74,0003.35,0002.96
2022-09-14 23:35:00,,0822.8,4.99,0.00,29.7,28.4,00.0,38.4,31.5,30.2,0000.0,0004.84,0003.37,0002.97
2022-09-14 23:36:00,,0822.8,5.01,0.00,29.7,28.5,00.0,38.4,31.5,31.2,0000.0,0004.85,0003.40,0003.01
2022-09-14 23:37:00,,0822.8,5.00,0.00,29.7,28.5,00.0,38.4,31.6,31.4,0000.0,0004.96,0003.46,0003.08
2022-09-14 23:38:00,,0822.8,5.00,0.00,29.7,28.6,00.0,38.5,31.6,30.9,0000.0,0005.08,0003.50,0003.13
2022-09-14 23:39:00,,0822.8,5.00,0.00,29.8,28.6,00.0,38.5,31.7,30.8,0000.0,0005.30,0003.56,0003.18
2022-09-14 23:40:00,,0822.8,4.99,0.00,29.8,28.7,00.0,38.5,31.7,30.1,0000.0,0005.29,0003.57,0003.22
2022-09-14 23:41:00,,0822.8,5.01,0.00,29.8,28.7,00.0,38.5,31.7,29.1,0000.0,0005.43,0003.62,0003.25
2022-09-14 23:42:00,,0822.8,4.99,0.00,29.8,28.8,00.0,38.5,31.7,28.1,0000.0,0005.25,0003.60,0003.24
2022-09-14 23:43:00,,0822.8,4.99,0.00,29.9,28.8,00.0,38.6,31.7,28.2,0000.0,0005.24,0003.58,0003.23
2022-09-14 23:44:00,,0822.8,5.01,0.00,29.9,28.8,00.0,38.6,31.8,28.6,0000.0,0005.23,0003.55,0003.20
2022-09-14 23:45:00,,0822.8,4.99,0.00,29.9,28.8,00.0,38.6,31.8,28.4,0000.0,0005.06,0003.51,0003.19
2022-09-14 23:46:00,,0822.8,5.01,0.00,29.9,28.8,00.0,38.6,31.8,28.1,0000.0,0005.06,0003.49,0003.17
2022-09-14 23:47:00,,0822.8,5.00,0.00,30.0,27.8,00.0,38.6,31.8,28.3,0000.0,0004.97,0003.44,0003.13
2022-09-14 23:48:00,,0822.8,5.00,0.00,29.9,26.8,00.0,38.6,31.7,27.9,0000.0,0004.84,0003.36,0003.04
2022-09-14 23:49:00,,0822.8,5.00,0.00,29.9,26.6,00.0,38.5,31.6,27.9,0000.0,0004.80,0003.31,0002.96
2022-09-14 23:50:00,,0822.8,5.00,0.00,29.8,26.9,00.0,38.5,31.4,28.3,0000.0,0004.51,0003.25,0002.88
2022-09-14 23:51:00,,0822.8,5.00,0.00,29.7,27.2,00.0,38.5,31.4,29.5,0000.0,0004.49,0003.23,0002.82
2022-09-14 23:52:00,,0822.8,5.00,0.00,29.7,27.5,00.0,38.5,31.4,30.2,0000.0,0004.61,0003.22,0002.81
2022-09-14 23:53:00,,0822.8,4.99,0.00,29.7,27.7,00.0,38.4,31.4,29.7,0000.0,0005.80,0003.24,0002.83
2022-09-14 23:54:00,,0822.8,5.01,0.00,29.7,27.9,00.0,38.4,31.5,29.6,0000.0,0005.88,0003.26,0002.86
2022-09-14 23:55:00,,0822.8,5.00,0.00,29.7,28.0,00.0,38.4,31.5,29.6,0000.0,0005.94,0003.29,0002.89
2022-09-14 23:56:00,,0822.8,5.00,0.00,29.7,28.1,00.0,38.4,31.5,29.3,0000.0,0006.04,0003.31,0002.88
2022-09-14 23:57:00,,0822.8,5.01,0.00,29.7,28.2,00.0,38.4,31.5,28.9,0000.0,0006.07,0003.33,0002.90
2022-09-14 23:58:00,,0822.8,5.00,0.00,29.7,28.3,00.0,38.4,31.5,28.6,0000.0,0006.00,0003.32,0002.91
2022-09-14 23:59:00,,0822.8,5.00,0.00,29.7,28.4,00.0,38.5,31.6,28.9,0000.0,0006.07,0003.34,0002.94
